GSAT-18

Last updated on Thu Nov 21 2024 00:02:43 GMT+0000 (Coordinated Universal Time)

1 41793U 16060A 24324.59529431 -.00000076 00000+0 00000+0 0 9992 2 41793 0.0775 97.8816 0003162 145.1005 104.4620 1.00271654 29769
UTC large
Height (km)
Speed (km/s)
/
Latitude / Longitude
Inclination (degrees)
Orbital Period (minutes)
Azimuth
Elevation
Range (km)
Doppler Factor

Next 0 passes for location: London (51.5072 / 0.1276)

Sorry there are no passes over London.